To NAV CANADA Home Page Login to a new session Search on AWWS site Feedback and Comments Disclaimer Vers la page française équivalente Tips FAQ What's new on the site To the Forecasts and Observations / NOTAM section To "File a Flight Plan" website Publications and other links Update of the User's profile FIC Telephone Numbers My Weather Data Folder Route Weather Data Regional Weather Data Local Weather Data To the Forecasts and Observations / NOTAM section
Request Generated 12/04/2016 at 22:20:06 UTC . Weather information available at that time is displayed.

METAR/TAF

PANGNIRTUNG/NU    (show WxCam)

LWIS CYXP 042200Z AUTO 00000KT M14/M18 A2980=
METAR CYXP 042100Z VRB02KT 15SM SKC M14/M18 A2981 RMK
-12.3/-14.9/0.0/35 SNOW CVR/MUCH LOOSE LAST STFD OBS/NEXT 051200Z
SLP101=
METAR CYXP 042000Z 25002KT 15SM FEW120 M14/M17 A2982 RMK AC1 AC TR
SLP103=

*** REMARK        : Forecast period has ended; this was the last TAF issued
*** REMARQUE : La période de prévision est échue; ceci était le dernier TAF qui a été émis
TAF CYXP 041838Z 0419/0421 VRB03KT P6SM FEW120
RMK NXT FCST WILL BE ISSUED AT 051345Z=
Your time UTC time
Weather data provided by Environment Canada and NAV CANADA